When you browse on this site, cookies collect data to enhance your experience and personalize the content and advertising you see.
Visit our Privacy Policy to learn more. By continuing to use the site, you agree to this use of cookies and data.
  • In Austria
  • List of Countries
  • For 7 days
  • Water Temperature
  • Satellite Maps
  • Weather Map
  • News
  • Weather Widgets
  • user-avatar
    Login

    Hourly Weather Strongsville

    Today, 19 February, Tuesday

    Time Temperature Precipitation Wind Pressure Humidity
    00:00 -8°C° 0 mm 2 mps 749 mmHg 89%
    01:00 -8°C° 0 mm 1 mps 750 mmHg 89%
    02:00 -8°C° 0 mm 1 mps 750 mmHg 89%
    03:00 -8°C° 0 mm 1 mps 750 mmHg 88%
    04:00 -8°C° 0 mm 1 mps 750 mmHg 88%
    05:00 -8°C° 0 mm 1 mps 750 mmHg 88%
    06:00 -8°C° 0 mm 1 mps 751 mmHg 89%
    07:00 -9°C° 0 mm 1 mps 751 mmHg 89%
    08:00 -7°C° 0 mm 1 mps 752 mmHg 82%
    09:00 -6°C° 0 mm 1 mps 752 mmHg 75%
    10:00 -3°C° 0 mm 1 mps 752 mmHg 68%
    11:00 -2°C° 0 mm 1 mps 752 mmHg 64%
    12:00 -1°C° 0 mm 1 mps 752 mmHg 60%
    13:00 -1°C° 0 mm 0 mps 752 mmHg 56%
    14:00 -1°C° 0 mm 0 mps 751 mmHg 56%
    15:00 -1°C° 0 mm 0 mps 751 mmHg 55%
    16:00 0°C° 0 mm 1 mps 751 mmHg 55%
    17:00 -1°C° 0 mm 1 mps 750 mmHg 61%
    18:00 -4°C° 0 mm 2 mps 750 mmHg 67%
    19:00 -5°C° 0 mm 2 mps 749 mmHg 74%
    20:00 -5°C° 0 mm 2 mps 749 mmHg 74%
    21:00 -5°C° 0 mm 2 mps 749 mmHg 74%
    22:00 -4°C° 0 mm 2 mps 749 mmHg 74%
    23:00 -4°C° 0 mm 2 mps 748 mmHg 73%

    Tomorrow, 20 February, Wednesday

    Time Temperature Precipitation Wind Pressure Humidity
    00:00 -4°C° 0 mm 2 mps 748 mmHg 72%
    01:00 -4°C° 0 mm 2 mps 747 mmHg 71%
    02:00 -5°C° 0 mm 3 mps 747 mmHg 70%
    03:00 -5°C° 0 mm 3 mps 746 mmHg 69%
    04:00 -5°C° 0 mm 3 mps 745 mmHg 67%
    05:00 -5°C° 0.2 mm 3 mps 744 mmHg 74%
    06:00 -5°C° 0.2 mm 4 mps 743 mmHg 80%
    07:00 -6°C° 0.2 mm 5 mps 743 mmHg 87%
    08:00 -5°C° 0.3 mm 5 mps 742 mmHg 87%
    09:00 -4°C° 0.3 mm 6 mps 741 mmHg 87%
    10:00 -3°C° 0.3 mm 7 mps 740 mmHg 87%
    11:00 -2°C° 0 mm 6 mps 739 mmHg 88%
    12:00 -1°C° 0 mm 6 mps 738 mmHg 88%
    13:00 +1°C° 0 mm 5 mps 737 mmHg 89%
    14:00 +1°C° 0.1 mm 6 mps 736 mmHg 90%
    15:00 +2°C° 0.1 mm 6 mps 735 mmHg 91%
    16:00 +2°C° 0.1 mm 7 mps 734 mmHg 92%
    17:00 +3°C° 2.3 mm 7 mps 733 mmHg 93%
    18:00 +3°C° 2.3 mm 6 mps 732 mmHg 94%
    19:00 +3°C° 2.3 mm 6 mps 731 mmHg 95%
    20:00 +4°C° 0.5 mm 7 mps 731 mmHg 94%
    21:00 +5°C° 0.5 mm 7 mps 730 mmHg 94%
    22:00 +6°C° 0.5 mm 8 mps 729 mmHg 93%
    23:00 +6°C° 0.1 mm 8 mps 730 mmHg 93%

    Day after tomorrow, 21 February, Thursday

    Time Temperature Precipitation Wind Pressure Humidity
    00:00 +6°C° 0.1 mm 8 mps 730 mmHg 93%
    01:00 +6°C° 0.1 mm 8 mps 730 mmHg 93%
    02:00 +4°C° 0 mm 7 mps 731 mmHg 92%
    03:00 +2°C° 0 mm 7 mps 732 mmHg 90%
    04:00 0°C° 0 mm 7 mps 733 mmHg 89%
    05:00 -1°C° 0 mm 6 mps 734 mmHg 88%
    06:00 -1°C° 0 mm 6 mps 735 mmHg 87%
    07:00 -2°C° 0 mm 6 mps 735 mmHg 86%
    08:00 -2°C° 0 mm 6 mps 736 mmHg 84%
    09:00 -2°C° 0 mm 6 mps 737 mmHg 82%
    10:00 -2°C° 0 mm 6 mps 738 mmHg 80%
    11:00 -1°C° 0 mm 6 mps 738 mmHg 79%
    12:00 -1°C° 0 mm 6 mps 739 mmHg 77%
    13:00 +1°C° 0 mm 6 mps 739 mmHg 75%
    14:00 +1°C° 0 mm 6 mps 739 mmHg 76%
    15:00 +1°C° 0 mm 5 mps 739 mmHg 76%
    16:00 +1°C° 0 mm 5 mps 740 mmHg 77%
    17:00 -1°C° 0 mm 4 mps 740 mmHg 80%
    18:00 -1°C° 0 mm 3 mps 741 mmHg 84%
    19:00 -2°C° 0 mm 3 mps 741 mmHg 88%
    20:00 -2°C° 0 mm 3 mps 742 mmHg 89%
    21:00 -2°C° 0 mm 2 mps 742 mmHg 90%
    22:00 -2°C° 0 mm 2 mps 743 mmHg 91%
    23:00 -3°C° 0 mm 2 mps 743 mmHg 91%

    22 February, Friday

    Time Temperature Precipitation Wind Pressure Humidity
    00:00 -3°C° 0 mm 2 mps 744 mmHg 92%
    01:00 -3°C° 0 mm 2 mps 744 mmHg 92%
    02:00 -3°C° 0 mm 2 mps 744 mmHg 91%
    03:00 -3°C° 0 mm 2 mps 744 mmHg 91%
    04:00 -4°C° 0 mm 2 mps 745 mmHg 90%
    05:00 -2°C° 0 mm 1 mps 745 mmHg 91%
    06:00 -2°C° 0 mm 1 mps 746 mmHg 91%
    07:00 -2°C° 0 mm 1 mps 746 mmHg 91%
    08:00 -1°C° 0 mm 1 mps 747 mmHg 85%
    09:00 0°C° 0 mm 1 mps 747 mmHg 79%
    10:00 +1°C° 0 mm 1 mps 748 mmHg 73%
    11:00 +2°C° 0 mm 1 mps 748 mmHg 69%
    12:00 +3°C° 0 mm 1 mps 747 mmHg 64%
    13:00 +3°C° 0 mm 2 mps 747 mmHg 59%
    14:00 +3°C° 0 mm 2 mps 747 mmHg 61%
    15:00 +3°C° 0 mm 2 mps 746 mmHg 64%
    16:00 +3°C° 0 mm 2 mps 746 mmHg 66%
    17:00 +2°C° 0 mm 2 mps 746 mmHg 70%
    18:00 +1°C° 0 mm 2 mps 746 mmHg 75%
    19:00 +1°C° 0 mm 1 mps 746 mmHg 80%
    20:00 -1°C° 0 mm 2 mps 746 mmHg 81%
    21:00 -2°C° 0 mm 2 mps 746 mmHg 82%
    22:00 -2°C° 0 mm 2 mps 746 mmHg 83%
    23:00 -2°C° 0 mm 2 mps 745 mmHg 82%

    23 February, Saturday

    Time Temperature Precipitation Wind Pressure Humidity
    00:00 -1°C° 0 mm 2 mps 745 mmHg 82%
    01:00 -1°C° 0 mm 2 mps 744 mmHg 81%
    02:00 -2°C° 0 mm 2 mps 744 mmHg 81%
    03:00 -2°C° 0 mm 2 mps 743 mmHg 82%
    04:00 -2°C° 0 mm 2 mps 743 mmHg 82%
    05:00 -2°C° 0 mm 2 mps 742 mmHg 81%
    06:00 -2°C° 0 mm 3 mps 742 mmHg 81%
    07:00 -2°C° 0 mm 3 mps 742 mmHg 81%
    08:00 0°C° 0 mm 3 mps 742 mmHg 77%
    09:00 +2°C° 0 mm 3 mps 741 mmHg 74%
    10:00 +3°C° 0 mm 3 mps 741 mmHg 71%
    11:00 +5°C° 0 mm 3 mps 740 mmHg 71%
    12:00 +8°C° 0 mm 3 mps 739 mmHg 72%
    13:00 +10°C° 0 mm 3 mps 738 mmHg 72%
    14:00 +10°C° 0 mm 3 mps 738 mmHg 75%
    15:00 +10°C° 0 mm 3 mps 737 mmHg 77%
    16:00 +11°C° 0 mm 3 mps 736 mmHg 80%
    17:00 +10°C° 0.2 mm 3 mps 735 mmHg 85%
    18:00 +9°C° 0.2 mm 3 mps 735 mmHg 89%
    19:00 +7°C° 0.2 mm 4 mps 734 mmHg 94%
    20:00 +8°C° 3.9 mm 5 mps 733 mmHg 94%
    21:00 +8°C° 3.9 mm 6 mps 731 mmHg 94%
    22:00 +8°C° 3.9 mm 7 mps 730 mmHg 94%
    23:00 +9°C° 7.2 mm 6 mps 729 mmHg 94%

    24 February, Sunday

    Time Temperature Precipitation Wind Pressure Humidity
    00:00 +10°C° 7.2 mm 6 mps 727 mmHg 93%
    01:00 +12°C° 7.2 mm 5 mps 726 mmHg 93%
    02:00 +13°C° 0.8 mm 6 mps 725 mmHg 92%
    03:00 +14°C° 0.8 mm 7 mps 724 mmHg 92%
    04:00 +14°C° 0.8 mm 7 mps 723 mmHg 91%
    05:00 +13°C° 0.1 mm 8 mps 722 mmHg 89%
    06:00 +13°C° 0.1 mm 8 mps 722 mmHg 87%
    07:00 +13°C° 0.1 mm 8 mps 721 mmHg 84%
    08:00 +11°C° 0 mm 9 mps 721 mmHg 80%
    09:00 +9°C° 0 mm 10 mps 722 mmHg 76%
    10:00 +7°C° 0 mm 11 mps 722 mmHg 72%
    11:00 +6°C° 0.1 mm 11 mps 722 mmHg 72%
    12:00 +6°C° 0.1 mm 11 mps 722 mmHg 72%
    13:00 +4°C° 0.1 mm 11 mps 723 mmHg 72%
    14:00 +3°C° 0.1 mm 12 mps 723 mmHg 71%
    15:00 +3°C° 0.1 mm 12 mps 723 mmHg 70%
    16:00 +2°C° 0.1 mm 12 mps 724 mmHg 70%
    17:00 +2°C° 0.1 mm 12 mps 724 mmHg 70%
    18:00 0°C° 0.1 mm 12 mps 725 mmHg 70%
    19:00 -1°C° 0.1 mm 12 mps 725 mmHg 71%
    20:00 -1°C° 0 mm 12 mps 726 mmHg 70%
    21:00 -2°C° 0 mm 12 mps 727 mmHg 70%
    22:00 -2°C° 0 mm 12 mps 727 mmHg 69%
    23:00 -2°C° 0.1 mm 12 mps 728 mmHg 70%
    Show more